Find Starlink 35441

NORAD ID: 65869 Int'l Des: 2025-223 Owner: SPXS Country: US Constellation: starlink operational
LEOCIRCULAR

Live Position

Loading 3D Globe...

About Starlink 35441

Description loading...

Upcoming Passes

Passes for default location (London). Set your location on the main map for personalized predictions.

Altitude History

Loading altitude history...

Two-Line Element Set

1 65869U 25223R 26106.18891700 .00008449 00000-0 29706-3 0 9999
2 65869 53.1561 120.2254 0001209 91.4402 268.6737 15.30200388 29948
Epoch: Apr 16, 2026 • Age: 13 hours

Current Status

Altitude 476.4 km
Velocity 7.63 km/s
Sub-Earth Point -2.44°S, 173.48°W
Launch Date Oct 3, 2025
Age 0.5 years
Type internet

Technical Details

Classification Payload
Mass 575.00 kg
Dry Mass 530.00 kg
Total Mass 575.00 kg
Length 0.30 m
Diameter 4.10 m
Span 29.00 m
Shape Box + pan
Manufacturer SPXS
Bus Type Starlink V2MO
Phase Status In Orbit
Owner/State SPXS/US

Most Searched